Location: Vienna
(48.2082°N, 16.3738°E)
Time: 22:13:48
(UTC+02:00)

ISS - Pass Details

Date: 17 July 2018
Orbit: 402 x 408 km, 51.6° (Epoch: 20 July)

Event Time Altitude Azimuth Distance (km) Brightness Sun altitude
Rises 03:14:25 0° 286° (WNW) 2,331 -0.1 -14.4°
Reaches altitude 10° 03:16:33 10° 293° (WNW) 1,471 -1.1 -14.2°
Maximum altitude 03:19:46 49° 9° (N) 538 -2.8 -13.9°
Drops below altitude 10° 03:22:59 10° 86° (E) 1,471 -0.5 -13.6°
Sets 03:25:07 0° 92° (E) 2,331 0.5 -13.4°
